QIANFAN-10

Satellite information

Favourite Embed

Satellite Type and Status

PAYLOADIN ORBIT

Key statistics

Satellite QIANFAN-10 at a glance.

Uptime

494

Days in orbit

Revolutions

≈ 13.5

Per day

Orbit

LEO

Low Earth Orbit

Inclination

89.0

Latest

Satellite identification and parameters

Extended collection of information and parameters for QIANFAN-10.

Object identification

Identified? True

Debris? False

Object name: QIANFAN-10

International designator: 2024-140K

Object number (NORAD): 60388

Object ID (CCSDS): 60388

Country: PEOPLES REPUBLIC OF CHINA (PRC)

Current information (Y/N): Y

RCS size: LARGE

Orbital parameters

Period: 106.589 minutes

Inclination: 88.9774 deg

SMA: 7446.785 km

Apoapsis: 1079.457 km

Periapsis: 1057.844 km

RAAN: 298.7347 deg

Eccentricy: 0.00145118

Argument of periapsis: 169.0499 deg

Mean anomaly: 191.0971 deg

Mean motion: 13.50981879 rev/day

Mean motion (dot): 0.00000133 rev/day2

B* drag term: 0.0001873759 1/REarth

Two-line elements (TLE)

Creation date: Dec. 12, 2025, 10:14 a.m.

Reference frame: TEME

Reference center: EARTH

Epoch: Dec. 12, 2025, 5:51 a.m. UTC

TLE line 0: 0 QIANFAN-10

TLE line 1: 1 60388U 24140K 25346.24425154 .00000133 00000-0 18738-3 0 9990

TLE line 2: 2 60388 88.9774 298.7347 0014512 169.0499 191.0971 13.50981879 67395

Live tracking on map

Real-time ground track for satellite QIANFAN-10.

In-orbit conjunctions

There are no conjunctions computed for QIANFAN-10, at the moment. Check back to stay up to date, as we update our databases every day.

Go to all conjunctions

Associated space launch

18 Low Earth Orbit communication satellites with Ku, Q and V band payloads for the G60 constellation operated by Shanghai Spacecom Satellite Technology (SSST) with funding backed by the Shanghai local government. Initial constellation will consist of 1296 satellites by 2027 with long term plans to expand it to 12000 satellites.

QIANFAN-10 was lifted into orbit during the mission ‘Long March 6A | G60 Polar Group 01’, on board a Long March 6A space rocket.

The launch took place on Aug. 6, 2024, 6:42 a.m. from Launch Complex 9A.

For more information about the launch, click the button.

Launch to space Long March 6A | G60 Polar Group 01
Long March 6A | G60 Polar Group 01

Agency: N/A

Status: Launch Successful

Launch date: Aug. 6, 2024, 6:42 a.m. UTC

Rocket: Long March 6A

Launch pad: Launch Complex 9A

Location: Taiyuan Satellite Launch Center, People's Republic of China

...

Latest news about this satellite

News about space launch
Brightness of first Chinese broadband constellation satellites alarms astronomers

The first satellites of a Chinese broadband constellation are significantly brighter than those of Western systems, posing a new challenge for astronomers.

News about space launch
Chinese rocket stage breaks up into cloud of more than 700 pieces of space debris

HELSINKI — A Chinese Long March 6A rocket’s upper stage has fragmented into a cloud of over 700 pieces of space debris, adding to concerns about long-term orbital safety. China […]

News about space launch
China's Thousand Sails Megaconstellation Kicks Off with Dangerous Debris Field

China's Thousand Sails Megaconstellation Kicks Off with Dangerous Debris Field


Newsletter sign-up

Weekly statistics, charts and insights to help you stay on top of the space industry.